Cosmos 292 Rocket - Orbit

View from above orbital plane
View from above orbital plane
View from above satellite
View from above satellite

Ground track
Ground track

The orbit data is extracted from the following two-line orbital elements,

1 04071U 69070B   13142.83999038  .00000577  00000-0  12291-3 0  4750
2 04071 074.0507 084.5756 0012966 082.6681 338.5906 14.61260162320634
Epoch (UTC): 22 May 2013 20:09:35
Eccentricity: 0.0012966
inclination: 74.0507°
perigee height: 680 km
apogee height: 698 km
right ascension of ascending node: 84.5756°
argument of perigee: 82.6681°
revolutions per day: 14.61260162
mean anomaly at epoch: 338.5906°
orbit number at epoch: 32063

The dashed part of the orbit path shows where the satellite is in the earth's shadow,  

Developed and maintained by Chris Peat, Heavens-Above GmbH. Please read the updated FAQ before sending e-mail. Imprint. DLR